sat.trackr.live / text

‹ back to catalog

STARLINK-11094 [DTC]

NORAD 59714 · 2024-088G

PAYLOAD ACTIVE UNKNOWN

§ Identity

Operator
Country
US
Launch date
2024-05-10
Launch site
AFWTR
Launch vehicle
Mass (kg)
RCS (m²)

Purposes: comms

External: N2YO · Heavens-Above · Gunter

§ Orbital elements

Epoch: 2026-09-21T17:43:28.898688Z

Period
91.74 min
Inclination
53.1599°
Eccentricity
0.0000844
Mean motion
15.69722599 rev/d
Perigee alt
359.1 km
Apogee alt
360.3 km
Semi-major
6,737.8 km
B*
2.2868e-5
RAAN
79.8549°
Arg perigee
81.6541°
Mean anomaly
278.4573°
Rev number
13,706

§ Raw data

STARLINK-11094 [DTC]1 59714U 24088G   26264.73852892  .00002184  00000+0  22868-4 0  99962 59714  53.1599  79.8549 0000844  81.6541 278.4573 15.69722599137061

JSON: /api/v1/satellites/59714 · /tle

For live sub-satellite position, see the globe view (requires WebGL).

§ Visibility from observer

Set your observer location to see the next 7 days of passes ≥ 10°. The values pass through the URL so the page stays shareable.

No JS? Fill the form by hand. The geolocation button needs JavaScript.